Location: Christchurch
(43.5330°S, 172.6330°E)
Time: 04:07:18
(UTC+13:00)

Mayak - Pass Details

Date: 24 January 2019
Orbit: 582 x 604 km, 97.6° (Epoch: 22 February)

Event Time Altitude Azimuth Distance (km) Brightness Sun altitude
Exits shadow 22:46:29 20° 83° (E) 1,389 0.2 -15.5°
Maximum altitude 22:47:55 24° 113° (ESE) 1,244 0.2 -15.7°
Drops below altitude 10° 22:51:20 10° 167° (SSE) 1,951 1.9 -16.1°
Sets 22:53:49 0° 180° (S) 2,865 3.1 -16.4°
